User: anonymous   Login
Location: Unspecified
(0.0000°N, 0.0000°E)
Time: 08:15:56
(UTC+00:00)
Language:

SSETI-EXPRESS DEB - Orbit

View from above orbital plane
View from above orbital plane
View from above satellite
View from above satellite

Ground track
Ground track

The orbit data is extracted from the following two-line orbital elements,

1 28897U 05043H   19345.62671641 +.00000101 +00000-0 +27913-4 0  9999
2 28897 097.9789 123.2329 0016840 146.7630 225.3922 14.64179647745384
Epoch (UTC): 11 December 2019 15:02:28
Eccentricity: 0.0016840
inclination: 97.9789°
perigee height: 668 km
apogee height: 691 km
right ascension of ascending node: 123.2329°
argument of perigee: 146.7630°
revolutions per day: 14.64179647
mean anomaly at epoch: 225.3922°
orbit number at epoch: 74538

The dashed part of the orbit path shows where the satellite is in the earth's shadow,  

DLR